COSMOS 2539

Last updated on Sun Jul 06 2025 00:02:46 GMT+0000 (Coordinated Universal Time)

1 44457U 19048A 25186.35302390 .00000096 00000+0 00000+0 0 9996 2 44457 0.0334 97.2088 0000717 35.3457 290.1270 1.00270323 21745
UTC large
Height (km)
Speed (km/s)
/
Latitude / Longitude
Inclination (degrees)
Orbital Period (minutes)
Azimuth
Elevation
Range (km)
Doppler Factor

Next 0 passes for location: London (51.5072 / 0.1276)

Sorry there are no passes over London.